SL-14 R/B, 18794

Orbit data source: Space-Track

SL-14 R/B, 18794 is space debris in LEO originally from a launch on Fri, 15 Jan 1988 UTC launched from the Plesetsk Missile And Space Complex (PKMTR). Debris objects in space refer to the collection of defunct objects orbiting the Earth. Examples of debris include non-operational satellites, rocket bodies, and fragments generated from explosions, collisions, or faulty payload assembly.

Loading next visibility...
Identifier
18794, 1988-002G
Orbit
LEO
Country
Flag of CISCIS
Related business
Manufacturer
Yuzhnoe
Mission
Spacecraft
Bus & Motor
S5M, Unknown motor
Mass
1,600 kg wet, 1,600 kg dry
Launch date (UTC)
1988-01-15 (38 years ago)
Launch vehicle
Unknown
Launch site
Plesetsk Missile And Space Complex (PKMTR)
Object type
Payload
Rocket body
Debris
Shape & HBR
Cyl, 1.4 m
Radar Cross Section
7.351 m², Large (>1 m²)

Expand to show TLE details & history
Last TLE update: 1 day ago

TLE from 1 day ago
0 SL-14 R/B
1 18794U 88002G   25305.59403251  .00000028  00000-0  11164-3 0  9997
2 18794  82.6018 165.6752 0036636 265.3419 121.2557 12.55583193732188
Epoch: 2025-11-01T14:15Z
TLE epoch observation values (Epoch: 2025-11-01T14:15:24.408Z)
Latitude
26.74681°
Longitude
-85.5648°
Altitude
1,459.282 km
Speed
7.128 km/s
True Right ascension
11h 17m 38s
True Declination
26° 37' 16"
Sunlit
Object was in daylight at epoch
Visualization orbit readout
Latitude
Unknown
Longitude
Unknown
Altitude
Unknown
Speed
Unknown
Apparent Right ascension
Unknown
Apparent Declination
Unknown
Sunlit
N/A
Visualization observer readout
Local Sidereal Time
12:26:57
Azimuth
Unknown
Elevation
Unknown
Doppler factor
Unknown
Orbital elements
Apogee altitude
1,467.195 km
Perigee altitude
1,409.921 km
Semi-major axis
7,816.695 km
Eccentricity
0.00366
Inclination
82.6018°
RAAN
165.6752°
Arg. of periapsis
265.3419°
True anomaly
121.61373°
Mean anomaly
121.2557°
Eccentric anomaly
121.4348°
Mean motion
3.14057 °/min
Orbital period
114.63 mins
BSTAR
0.00011164
Loading maneuver chart data...
Computing Atmospheric mass density...
Loading historical data...
Loading historical data...
Loading historical data...
Loading historical data...
Loading historical data...
Loading historical data...
Loading historical data...

Documentation

Showing up to 5 results
|